Regional Weather Roundup
Issued by NWS

Home | Current Version | Previous Version | Text Only | Print | Product List | Glossary On
Versions: 1 2 3 4 5 6 7 8 9 10 11 12 13 14 15 16 17 18 19 20 21 22 23 24 25 26 27 28 29 30 31 32 33 34 35 36 37 38 39 40 41 42 43 44 45 46 47 48 49 50
000
ASUS43 KDTX 310201
RWRMI
MICHIGAN HOURLY REGIONAL WEATHER ROUNDUP
NATIONAL WEATHER SERVICE DETROIT/PONTIAC MI
1000 PM EDT THU OCT 30 2014

NOTE: "FAIR" INDICATES FEW OR NO CLOUDS BELOW 12,000 FEET WITH NO
SIGNIFICANT WEATHER AND/OR OBSTRUCTION TO VISIBILITY.

MIZ047>049-052>055-059>063-066>070-074>076-081>083-310300-
SOUTHEAST LOWER MICHIGAN

CITY           SKY/WX    TMP DP  RH WIND       PRES   REMARKS
ADRIAN         CLOUDY    45  36  70 SW5       30.04F
ALMA           CLOUDY    44  37  77 SW6       30.01F
ANN ARBOR      CLOUDY    44  36  73 SW5       30.03F
BAD AXE        CLOUDY    43  41  94 S5        30.00F
CARO           CLOUDY    43  41  93 CALM      30.00F
DETROIT CITY   CLOUDY    49  35  58 SW6       30.04F
DETROIT        CLOUDY    47  37  68 S6        30.04F
FLINT          CLOUDY    47  37  68 S5        30.02F
GROSSE ILE     CLOUDY    46  37  71 SW3       30.03F
HILLSDALE      CLOUDY    44  37  75 S3        30.02F
HOWELL         CLOUDY    44  37  76 CALM      30.02F

CITY           SKY/WX    TMP DP  RH WIND       PRES   REMARKS
JACKSON        CLOUDY    44  36  73 S5        30.02F
LAMBERTVILLE   CLOUDY    46  36  66 CALM      30.04F
LANSING        CLOUDY    45  36  70 SW7       30.02F
LAPEER         DRIZZLE   44  38  81 SW3       30.02F
MASON          CLOUDY    44  37  76 CALM      30.02F
MONROE         CLOUDY    46  37  71 CALM      30.03S
MT. CLEMENS    CLOUDY    47  36  67 SW5       30.01F
PONTIAC        LGT RAIN  45  36  70 S6        30.01F
PORT HOPE        N/A     44  40  85 CALM      29.99F
PORT HURON     CLOUDY    45  37  76 CALM      30.02F
TRI CITIES     CLOUDY    46  39  76 SW7       30.01F
TROY           CLOUDY    48  33  56 SW6       30.04F
SAGINAW HB     CLOUDY    45  39  81 SW5       30.00F
$$
MIZ043>046-050>051-056>058-064>065-071>073-077>080-310300-
SOUTHWEST LOWER MICHIGAN

CITY           SKY/WX    TMP DP  RH WIND       PRES   REMARKS
BATTLE CREEK   CLOUDY    45  36  70 SW5       30.03F
BENTON HARBOR  CLOUDY    47  38  71 W5        30.03F
BIG RAPIDS     CLOUDY    43  39  86 SW3       29.98F
COLDWATER      CLOUDY    46  37  68 W5        30.03S
FREMONT        FAIR      42  36  79 CALM      30.00F
HOLLAND        CLOUDY    49  38  65 W6        30.02F
GRAND RAPIDS   CLOUDY    46  38  73 SW5       30.02F
IONIA          CLOUDY    44  38  79 SW5       30.01F
KALAMAZOO      CLOUDY    46  36  68 SW5       30.03F
LUDINGTON      CLOUDY    49  40  70 W5        29.99F
MARSHALL       CLOUDY    43  36  75 SW3       30.03S
MOUNT PLEASANT CLOUDY    44  36  72 SW6       29.99F
MUSKEGON       CLOUDY    48  37  65 W6        30.01F
SOUTH HAVEN    CLOUDY    50  39  65 W6        30.02F
$$
MIZ016>042-310300-
NORTHERN LOWER MICHIGAN

CITY           SKY/WX    TMP DP  RH WIND       PRES   REMARKS
ALPENA         LGT RAIN  42  40  92 SW3       29.96F
BEAVER ISLAND  MIX PCPN  42  39  86 W5        29.95F
BELLAIRE       LGT SNOW  43  40  88 CALM      29.97F
CADILLAC       CLOUDY    41  36  81 W5        29.96F
CHARLEVOIX     LGT RAIN  43  38  84 W6G17     29.97F
FRANKFORT      CLOUDY    45  37  75 W8        29.97F
GAYLORD        LGT RAIN  40  37  89 SW7       29.94F
GRAYLING       LGT RAIN  40  38  91 SW3       29.96F
HARBOR SPRINGS DRIZZLE   41  39  93 W6        29.94F
HOUGHTON LAKE  CLOUDY    43  39  86 W7        29.97F
MANISTEE       CLOUDY    46  36  66 W9        29.98F
OSCODA         LGT RAIN  42  41  97 S5        29.97F
PELLSTON       LGT RAIN  41  40  96 W5        29.95F
ROGERS CITY    CLOUDY    41  41 100 SW6       29.96F
TRAVERSE CITY  LGT RAIN  44  37  76 SW5       29.96F
$$
MIZ007>008-015-310300-
EASTERN UPPER MICHIGAN

CITY           SKY/WX    TMP DP  RH WIND       PRES   REMARKS
KINROSS        CLOUDY    39  39 100 W5        29.93F
MACKINAC ISLAN LGT RAIN  40  39  98 NW8       29.94S WCI  34
NEWBERRY       DRIZZLE   38  38  98 W7        29.93F WCI  33
S. S. MARIE    LGT RAIN  40  39  97 CALM      29.92F
MUNISING         N/A     43  38  82 N10       29.95F
$$
MIZ004>006-011>014-085-310300-
CENTRAL UPPER MICHIGAN

CITY           SKY/WX    TMP DP  RH WIND       PRES   REMARKS
MANISTIQUE     LGT RAIN  39  38  97 CALM      29.95F
ESCANABA       CLOUDY    41  34  75 W8        29.96F
MENOMINEE      CLOUDY    43  30  61 NW8       29.99F
SAWYER-GWINN   CLOUDY    37  36  93 W7        29.95F WCI  32
$$
MIZ001>003-009>011-084-310300-
WESTERN UPPER MICHIGAN

CITY           SKY/WX    TMP DP  RH WIND       PRES   REMARKS
IRON MOUNTAIN  CLOUDY    39  32  76 W8        29.97F WCI  33
HOUGHTON       LGT SNOW  34  30  85 N20G29    30.02R FOG     WCI  23
COPPER HARBOR    N/A     39  36  89 NE23      30.01R WCI  28
IRONWOOD       CLOUDY    34  30  86 N13G20    30.06S WCI  25
$$

ABBREVIATIONS USED IN REMARKS
   TC - TEMPERATURE IN CELSIUS
  WCI - WIND CHILL INDEX
   HX - HEAT INDEX
  VSB - VISIBILITY




USA.gov is the U.S. government's official web portal to all federal, state and local government web resources and services.